Regional Weather Roundup
Issued by NWS

Home | Current Version | Previous Version | Text Only | Print | Product List | Glossary Off
Versions: 1 2 3 4 5 6 7 8 9 10 11 12 13 14 15 16 17 18 19 20 21 22 23 24 25 26 27 28 29 30 31 32 33 34 35 36 37 38 39 40 41 42 43 44 45 46 47 48 49 50

000
ASUS43 KLOT 271709
RWRIL

ILLINOIS REGIONAL WEATHER ROUNDUP
NATIONAL WEATHER SERVICE CHICAGO/ROMEOVILLE IL
1200 PM CDT SAT MAY 27 2017

NOTE: "FAIR" INDICATES FEW OR NO CLOUDS BELOW 12,000 FEET WITH NO
SIGNIFICANT WEATHER AND/OR OBSTRUCTIONS TO VISIBILITY.

* THESE STATIONS ARE NOT UNDER NWS QUALITY CONTROL. THEY ALSO MAY NOT
  REPORT WEATHER SUCH AS PRECIPITATION OR FOG.

ILZ001-002-007-009-015-016-024-271800-
NORTHWEST ILLINOIS

CITY           SKY/WX    TMP DP  RH WIND       PRES   REMARKS
MOLINE         CLOUDY    68  60  75 CALM      29.93S
STERLING*      PTSUNNY   67  62  84 W3        29.93F
SAVANNA*       CLOUDY    63  59  86 SW8       29.94S
$$

ILZ003-004-008-010-011-017-018-271800-
NORTH CENTRAL ILLINOIS

CITY           SKY/WX    TMP DP  RH WIND       PRES   REMARKS
ROCKFORD       CLOUDY    71  60  68 S3        29.93F
FREEPORT*      CLOUDY    66  58  75 S3        29.94F
ROCHELLE*      CLOUDY    68  60  74 CALM      29.92F
DE KALB*       PTSUNNY   69  61  75 CALM      29.93S
PERU*          MOSUNNY   68  60  74 E3        29.92S
$$

ILZ005-006-012>014-019>023-271800-
NORTHEAST ILLINOIS

CITY           SKY/WX    TMP DP  RH WIND       PRES   REMARKS
CHICAGO-OHARE  MOSUNNY   70  52  52 CALM      29.91S
CHICAGO-MIDWAY PTSUNNY   69  57  65 E7        29.91S
AURORA         MOSUNNY   71  60  68 N3        29.92S
LANSING*       CLOUDY    68  60  77 NE7       29.91S
JOLIET*        SUNNY     72  60  66 NE6       29.91S
WAUKEGAN       SUNNY     66  53  63 VRB3      29.92R
DUPAGE AIRPORT SUNNY     69  58  67 CALM      29.92R
KANKAKEE*      CLOUDY    73  62  69 CALM      29.91R
WHEELING       SUNNY     67  55  65 VRB3      29.93S
MORRIS*        MOSUNNY   72  61  67 CALM      29.91R
ROMEOVILLE*    SUNNY     70  61  73 NE5       29.92R
$$

LMZ740>746-271800-
SOUTHERN LAKE MICHIGAN

STATION/POSITION SKY/WX   TEMP    WIND        PRES    VSBY  WAVE
                          AIR SEA DIR/SP/G                  HT/PER
                          (F)     (DEG/KT/KT) (MB)    (MI)  (FT/S)
SOUTHERN BUOY              52 51   10/  4/  4 1013.1F         0
WILMETTE HARBOR            54 54                N/A           0
HARRISON CRIB              54     340/  7/  7   N/A
BURNHAM HARBOR             58      40/  6/  7   N/A
CALUMET HARBOR             59     350/  4/  6 1012.8R
BURNS HARBOR               53     360/  3/  4 1013.5F
MICHIGAN CITY              55     270/  1/  2   N/A
MICHIGAN CITY 6N           53 56  300/  2/  2   N/A           1
ST. JOSEPH                 58 59   30/  6/  6 1012.9          1
$$

ILZ025>027-034>036-040-047-049-050-058-095>099-271800-
WEST-CENTRAL ILLINOIS

CITY           SKY/WX    TMP DP  RH WIND       PRES   REMARKS
QUINCY         SUNNY     73  63  70 E5        29.92R
GALESBURG*     MOSUNNY   68  61  77 CALM      29.93R
MACOMB*        PTSUNNY   67  65  95 NE5       29.95F
JACKSONVILLE*  PTSUNNY   66  62  86 E3        29.92S
PITTSFIELD*    SUNNY     71  64  78 SE3       29.92F
$$

ILZ028>032-037-038-041>044-048-051>054-059>061-271800-
CENTRAL ILLINOIS

CITY           SKY/WX    TMP DP  RH WIND       PRES   REMARKS
PONTIAC        MOSUNNY   72  65  78 E5        29.91F
BLOOMINGTON    MOSUNNY   71  62  73 NE7       29.93R
DECATUR        CLOUDY    67  62  84 NE6       29.92F
PEORIA         SUNNY     71  63  75 VRB3      29.92R
LACON*         PTSUNNY   67  61  83 CALM      29.92S
LINCOLN*       MOSUNNY   75  64  67 CALM      29.91S
SPRINGFIELD    MOSUNNY   76  64  66 E7        29.91S
TAYLORVILLE    PTSUNNY   71  63  75 NE7       29.91F
$$

ILZ033-039-045-046-055>057-062-063-271800-
EAST-CENTRAL ILLINOIS

CITY           SKY/WX    TMP DP  RH WIND       PRES   REMARKS
CHAMPAIGN      CLOUDY    67  60  78 VRB5      29.93R
RANTOUL*       CLOUDY    69  64  83 SE7       29.93R
MATTOON        CLOUDY    72  63  73 NE6       29.90S
PARIS*         CLOUDY    68  64  87 NE5       29.92S
$$

ILZ079-100>102-271800-
SOUTHWEST ILLINOIS

CITY           SKY/WX    TMP DP  RH WIND       PRES   REMARKS
ALTON          MOSUNNY   77  64  65 VRB6      29.89S
CAHOKIA*       SUNNY     84  64  50 NE6       29.88R HX  85
SPARTA*        PTSUNNY   80  68  67 E3        29.88S HX  82
$$

ILZ064>066-069>071-074>076-080>082-084>086-088>090-092>094-271800-
SOUTH-CENTRAL ILLINOIS

CITY           SKY/WX    TMP DP  RH WIND       PRES   REMARKS
CARBONDALE     CLOUDY    81  71  71 VRB3      29.87S HX  85
CAIRO*         MOSUNNY   82  69  63 SW8       29.88S HX  85
EFFINGHAM*     SUNNY     73  67  81 NW6       29.92R
MARION         PTSUNNY   82  73  74 CALM      29.88F HX  88
MT. VERNON       N/A     82  70  66 VRB5      29.88S HX  86
CENTRALIA*     SUNNY     81  67  63 NE3       29.87F HX  83
SALEM*         SUNNY     80  66  61 NE7       29.88F HX  82
METROPOLIS*    PTSUNNY   82  68  63 SW9       29.90S HX  85
$$

ILZ067-068-072-073-078-083-087-091-271800-
SOUTHEAST ILLINOIS

CITY           SKY/WX    TMP DP  RH WIND       PRES   REMARKS
LAWRENCEVILLE  PTSUNNY   79  66  64 CALM      29.88S HX  81
FLORA*         MOSUNNY   81  67  61 CALM      29.89S HX  83
FAIRFIELD*     MOSUNNY   80  69  67 CALM      29.87S HX  83
HARRISBURG*    PTSUNNY   83  72  68 SE3       29.88F HX  88
ROBINSON*      MOSUNNY   73  66  78 N8        29.90S
CARMI*         PTSUNNY   82  70  66 S3        29.87F HX  86
$$

ABBREVIATIONS USED IN REMARKS
   TC - TEMPERATURE IN CELSIUS
  WCI - WIND CHILL INDEX
   HX - HEAT INDEX
  VSB - VISIBILITY
$$





USA.gov is the U.S. government's official web portal to all federal, state and local government web resources and services.